Location: Unspecified
(0.0000°N, 0.0000°E)
Time: 07:03:45
(UTC+00:00)

S-56A Canister/Altair - Pass Details

Date: 03 June 2024
Orbit: 637 x 2489 km, 38.9° (Epoch: 22 June)

Event Time Altitude Azimuth Distance (km) Brightness Sun altitude
Rises 08:52:33 0° 333° (NNW) 5,054 11.7 39.6°
Reaches altitude 10° 08:57:49 10° 351° (N) 3,649 11.3 40.7°
Maximum altitude 09:03:09 17° 27° (NNE) 2,706 11.3 41.9°
Drops below altitude 10° 09:07:27 10° 66° (ENE) 2,840 11.5 42.8°
Sets 09:10:46 0° 87° (E) 3,519 11.6 43.5°
